Powrót do katalogu

CZ-6A DEB

AktywnyPO
NORAD 61430·DEBRIS·🇨🇳 China

Wystrzelony Aug 6, 2024 z Taiyuan Satellite Launch Center

Loading…

Następne Przeloty (najbliższe 24 godziny)

TLE

ŚwieżeSource: Space-Track

Epoka: Sep 14, 2026, 11:34 UTC

1 61430U 24140YX  26257.48233362  .00000344  00000-0  17370-3 0  9990
2 61430  89.0436 269.9629 0076733 275.6674  83.5766 14.12702318106373

Śledź CZ-6A DEB w czasie rzeczywistym z AllMySat

Download on the App Store